Find Starlink 34450

NORAD ID: 64447 Int'l Des: 2025-130 Owner: SPXS Country: US Constellation: starlink operational
LEOCIRCULAR

Aktuelle Ansicht

3D-Globus wird geladen...

Über Starlink 34450

Beschreibung wird geladen...

Nächste Überflüge

Passes for default location (London). Set your location on the main map for personalized predictions.

Höhenverlauf

Loading altitude history...

Zweizeiliger Elementsatz

1 64447U 25130K 26149.18229775 .00025530 00000-0 87043-3 0 9999
2 64447 53.1604 74.8829 0001243 99.0563 261.0579 15.30225899 53020
Epoch: 29. Mai 2026 • Age: 25 hours

Aktueller Status

Höhe 488.8 km
Geschwindigkeit 7.62 km/s
Subsatellitenpunkt -40.18°S, 32.15°W
Startdatum 18. Juni 2025
Alter 0.9 years
Typ internet

Technische Details

Klassifizierung Payload
Masse 575.00 kg
Trockenmasse 530.00 kg
Gesamtmasse 575.00 kg
Länge 0.30 m
Durchmesser 4.10 m
Spannweite 29.00 m
Form Box + pan
Hersteller SPXS
Bus-Typ Starlink V2MO
Phasenstatus In Orbit
Besitzer/Staat SPXS/US

Most Searched